User: anonymous   Login
Location: Unspecified
(0.0000°N, 0.0000°E)
Time: 07:54:04
(UTC+00:00)
Language:

BREEZE-M R/B - Orbit

View from above orbital plane
View from above orbital plane
View from above satellite
View from above satellite

Ground track
Ground track

The orbit data is extracted from the following two-line orbital elements,

1 39173U 13026B   20331.38877267 -.00000077 +00000-0 +00000-0 0  9997
2 39173 023.7493 136.8615 7605700 251.9270 018.8152 01.10515162029844
Epoch (UTC): 26 November 2020 09:19:49
Eccentricity: 0.7605700
inclination: 23.7493°
perigee height: 3083 km
apogee height: 63194 km
right ascension of ascending node: 136.8615°
argument of perigee: 251.9270°
revolutions per day: 1.10515162
mean anomaly at epoch: 18.8152°
orbit number at epoch: 2984

The dashed part of the orbit path shows where the satellite is in the earth's shadow,  

DLR